NPT592 EGKK-EKCH

Flight info

Callsign NPT592
Flight time 1h 36m
Altitude 37000
Route FRANE M604 PAAVO Q295 SOMVA DCT MAVAS DCT ANDIK N873 JUIST DCT ROCZO DCT DOSUR DCT TALSA P729 TUDLO
Aircraft B738/M-SDE2E3FGHIRWXY/LB1

Departure

Time 2026-04-21 20:16
Airport London Gatwick Airport (EGKK)

Arrival

Time 2026-04-21 21:53
Airport Copenhagen Kastrup Airport (EKCH)
Time Latitude Longitude Altitude Speed Heading
2026-04-21 19:21 51.15660 -0.18829 212 ft 0 kts 348°
2026-04-21 20:04 51.15637 -0.18822 207 ft 4 kts 348°
2026-04-21 20:05 51.15616 -0.18814 206 ft 4 kts 333°
2026-04-21 20:05 51.15598 -0.18787 209 ft 4 kts 293°
2026-04-21 20:05 51.15593 -0.18747 208 ft 4 kts 263°
2026-04-21 20:05 51.15597 -0.18707 212 ft 3 kts 258°
2026-04-21 20:06 51.15598 -0.18700 213 ft 0 kts 258°
2026-04-21 20:09 51.15595 -0.18723 210 ft 7 kts 257°
2026-04-21 20:10 51.15562 -0.18825 205 ft 12 kts 206°
2026-04-21 20:10 51.15482 -0.18808 208 ft 12 kts 169°
2026-04-21 20:10 51.15398 -0.18780 204 ft 13 kts 168°
2026-04-21 20:10 51.15307 -0.18747 211 ft 14 kts 168°
2026-04-21 20:11 51.15214 -0.18714 204 ft 13 kts 167°
2026-04-21 20:11 51.15134 -0.18734 209 ft 13 kts 237°
2026-04-21 20:11 51.15111 -0.18880 214 ft 14 kts 257°
2026-04-21 20:11 51.15087 -0.19050 210 ft 17 kts 257°
2026-04-21 20:12 51.15059 -0.19260 204 ft 22 kts 257°
2026-04-21 20:12 51.15023 -0.19521 204 ft 26 kts 258°
2026-04-21 20:12 51.14995 -0.19717 204 ft 27 kts 257°
2026-04-21 20:12 51.14944 -0.20088 204 ft 25 kts 257°
2026-04-21 20:13 51.14908 -0.20344 208 ft 23 kts 258°
2026-04-21 20:13 51.14874 -0.20588 209 ft 22 kts 257°
2026-04-21 20:13 51.14841 -0.20826 215 ft 22 kts 259°
2026-04-21 20:13 51.14810 -0.21057 210 ft 21 kts 257°
2026-04-21 20:14 51.14771 -0.21277 204 ft 20 kts 258°
2026-04-21 20:14 51.14738 -0.21405 212 ft 10 kts 205°
2026-04-21 20:14 51.14719 -0.21405 208 ft 3 kts 175°
2026-04-21 20:14 51.14686 -0.21388 211 ft 8 kts 152°
2026-04-21 20:15 51.14617 -0.21327 204 ft 15 kts 168°
2026-04-21 20:15 51.14529 -0.21243 212 ft 14 kts 117°
2026-04-21 20:15 51.14525 -0.21143 216 ft 0 kts 82°
2026-04-21 20:15 51.14525 -0.21141 216 ft 1 kts 82°
2026-04-21 20:16 51.14549 -0.20962 213 ft 50 kts 77°
2026-04-21 20:16 51.14684 -0.19984 215 ft 128 kts 78°
2026-04-21 20:16 51.14896 -0.18390 655 ft 151 kts 77°
2026-04-21 20:16 51.15084 -0.16857 1937 ft 131 kts 79°
2026-04-21 20:17 51.15285 -0.15405 2900 ft 139 kts 78°
2026-04-21 20:17 51.15503 -0.13860 3712 ft 154 kts 79°
2026-04-21 20:17 51.15762 -0.11999 4060 ft 189 kts 79°
2026-04-21 20:17 51.16070 -0.09796 4355 ft 217 kts 79°
2026-04-21 20:18 51.16297 -0.08176 4568 ft 234 kts 79°
2026-04-21 20:18 51.16784 -0.04691 4977 ft 242 kts 79°
2026-04-21 20:18 51.16954 -0.02031 5010 ft 243 kts 92°
2026-04-21 20:18 51.16872 0.00662 5119 ft 244 kts 92°
2026-04-21 20:19 51.16797 0.03354 5132 ft 243 kts 92°
2026-04-21 20:19 51.16735 0.06034 5145 ft 242 kts 92°
2026-04-21 20:19 51.16680 0.08713 5168 ft 241 kts 92°
2026-04-21 20:19 51.16628 0.11384 5192 ft 241 kts 92°
2026-04-21 20:20 51.16578 0.14026 5204 ft 242 kts 92°
2026-04-21 20:20 51.16542 0.16709 5221 ft 243 kts 90°
2026-04-21 20:20 51.16549 0.19394 5234 ft 243 kts 90°
2026-04-21 20:20 51.16562 0.22083 5252 ft 243 kts 90°
2026-04-21 20:21 51.16571 0.24771 5269 ft 242 kts 90°
2026-04-21 20:21 51.16577 0.27453 5291 ft 243 kts 90°
2026-04-21 20:21 51.16582 0.29271 5297 ft 243 kts 90°
2026-04-21 20:21 51.16585 0.31924 5291 ft 243 kts 90°
2026-04-21 20:22 51.16588 0.34650 5293 ft 243 kts 90°
2026-04-21 20:22 51.16593 0.40027 5300 ft 243 kts 90°
2026-04-21 20:22 51.16594 0.42689 5296 ft 243 kts 90°
2026-04-21 20:23 51.16595 0.45383 5289 ft 243 kts 90°
2026-04-21 20:23 51.16594 0.48078 5289 ft 243 kts 90°
2026-04-21 20:23 51.16630 0.50765 5300 ft 243 kts 82°
2026-04-21 20:23 51.17273 0.53233 5297 ft 246 kts 55°
2026-04-21 20:24 51.18554 0.55052 5294 ft 252 kts 34°
2026-04-21 20:24 51.20211 0.56044 5301 ft 257 kts 19°
2026-04-21 20:24 51.21961 0.56687 5281 ft 258 kts 17°
2026-04-21 20:24 51.23721 0.57291 5279 ft 259 kts 17°
2026-04-21 20:25 51.25476 0.57913 5268 ft 259 kts 17°
2026-04-21 20:25 51.27236 0.58555 5247 ft 259 kts 18°
2026-04-21 20:25 51.28996 0.59206 5231 ft 260 kts 18°
2026-04-21 20:25 51.30758 0.59863 5228 ft 261 kts 18°
2026-04-21 20:26 51.32546 0.60539 5660 ft 266 kts 18°
2026-04-21 20:26 51.34356 0.61226 5751 ft 267 kts 18°
2026-04-21 20:26 51.36150 0.61905 5892 ft 263 kts 18°
2026-04-21 20:26 51.37925 0.62578 6000 ft 262 kts 18°
2026-04-21 20:27 51.39704 0.63252 6020 ft 263 kts 18°
2026-04-21 20:27 51.41488 0.63923 6030 ft 264 kts 18°
2026-04-21 20:27 51.43291 0.64601 6497 ft 268 kts 18°
2026-04-21 20:27 51.45105 0.65283 7593 ft 267 kts 18°
2026-04-21 20:28 51.46924 0.65968 8602 ft 271 kts 17°
2026-04-21 20:28 51.48779 0.66668 9558 ft 276 kts 17°
2026-04-21 20:28 51.50667 0.67381 10506 ft 281 kts 17°
2026-04-21 20:28 51.52641 0.68130 10944 ft 305 kts 17°
2026-04-21 20:29 51.54799 0.68951 11162 ft 333 kts 16°
2026-04-21 20:29 51.57109 0.69826 11699 ft 347 kts 16°
2026-04-21 20:29 51.59480 0.70718 12516 ft 352 kts 16°
2026-04-21 20:29 51.61874 0.71622 13433 ft 355 kts 15°
2026-04-21 20:30 51.64290 0.72537 14332 ft 359 kts 15°
2026-04-21 20:30 51.66738 0.73465 15211 ft 362 kts 15°
2026-04-21 20:30 51.69225 0.74411 15551 ft 375 kts 15°
2026-04-21 20:30 51.71766 0.75378 16067 ft 375 kts 15°
2026-04-21 20:31 51.74295 0.76341 17198 ft 371 kts 15°
2026-04-21 20:31 51.76811 0.77311 18136 ft 373 kts 15°
2026-04-21 20:31 51.79345 0.78326 18916 ft 377 kts 17°
2026-04-21 20:31 51.81786 0.79923 19614 ft 382 kts 27°
2026-04-21 20:32 51.84060 0.82188 20292 ft 386 kts 37°
2026-04-21 20:32 51.86029 0.85174 20980 ft 392 kts 50°
2026-04-21 20:32 51.87480 0.88875 21581 ft 400 kts 64°
2026-04-21 20:32 51.88515 0.93157 22243 ft 406 kts 67°
2026-04-21 20:33 51.89548 0.97437 22815 ft 412 kts 66°
2026-04-21 20:33 51.90593 1.01657 23814 ft 406 kts 65°
2026-04-21 20:33 51.91660 1.05900 24361 ft 410 kts 65°
2026-04-21 20:33 51.92754 1.10220 24730 ft 419 kts 66°
2026-04-21 20:34 51.93872 1.14620 25098 ft 426 kts 65°
2026-04-21 20:34 51.95007 1.19078 25549 ft 430 kts 65°
2026-04-21 20:34 51.96152 1.23584 26016 ft 434 kts 64°
2026-04-21 20:34 51.97304 1.28130 26472 ft 438 kts 64°
2026-04-21 20:35 51.98467 1.32730 26907 ft 442 kts 64°
2026-04-21 20:35 51.99637 1.37370 27335 ft 447 kts 63°
2026-04-21 20:35 52.00816 1.42055 27746 ft 450 kts 63°
2026-04-21 20:35 52.02003 1.46785 28165 ft 454 kts 63°
2026-04-21 20:36 52.03191 1.51536 28777 ft 453 kts 64°
2026-04-21 20:36 52.04376 1.56279 29266 ft 455 kts 64°
2026-04-21 20:36 52.05568 1.61061 29652 ft 458 kts 64°
2026-04-21 20:36 52.06767 1.65885 29966 ft 462 kts 64°
2026-04-21 20:37 52.07973 1.70745 30401 ft 464 kts 64°
2026-04-21 20:37 52.09174 1.75602 30864 ft 463 kts 64°
2026-04-21 20:37 52.10370 1.80447 31353 ft 461 kts 64°
2026-04-21 20:37 52.11561 1.85283 31797 ft 460 kts 64°
2026-04-21 20:38 52.12751 1.90120 32196 ft 461 kts 64°
2026-04-21 20:38 52.13940 1.94961 32615 ft 461 kts 64°
2026-04-21 20:38 52.15123 1.99794 33184 ft 457 kts 65°
2026-04-21 20:38 52.16290 2.04573 33802 ft 453 kts 65°
2026-04-21 20:39 52.17456 2.09346 34169 ft 454 kts 65°
2026-04-21 20:39 52.18623 2.14138 34441 ft 456 kts 65°
2026-04-21 20:39 52.19794 2.18954 34727 ft 458 kts 65°
2026-04-21 20:39 52.20965 2.23788 34948 ft 459 kts 65°
2026-04-21 20:40 52.22133 2.28623 35179 ft 457 kts 65°
2026-04-21 20:40 52.23296 2.33448 35352 ft 458 kts 65°
2026-04-21 20:40 52.25625 2.43135 35353 ft 457 kts 65°
2026-04-21 20:41 52.27918 2.52728 35363 ft 449 kts 65°
2026-04-21 20:41 52.30154 2.62089 35351 ft 442 kts 65°
2026-04-21 20:42 52.32117 2.71714 35354 ft 448 kts 70°
2026-04-21 20:42 52.33792 2.81533 35352 ft 453 kts 70°
2026-04-21 20:43 52.35494 2.91464 35356 ft 454 kts 70°
2026-04-21 20:43 52.37232 3.01402 35361 ft 454 kts 71°
2026-04-21 20:44 52.38952 3.11241 35351 ft 446 kts 73°
2026-04-21 20:44 52.40644 3.20990 35323 ft 445 kts 71°
2026-04-21 20:45 52.42311 3.30742 35328 ft 444 kts 71°
2026-04-21 20:45 52.43963 3.40508 35333 ft 445 kts 73°
2026-04-21 20:46 52.45615 3.50288 35352 ft 445 kts 72°
2026-04-21 20:46 52.47261 3.60082 35349 ft 445 kts 73°
2026-04-21 20:47 52.48888 3.69818 35338 ft 439 kts 73°
2026-04-21 20:47 52.50483 3.79442 35353 ft 435 kts 74°
2026-04-21 20:48 52.52071 3.89041 35360 ft 436 kts 73°
2026-04-21 20:48 52.53657 3.98697 35367 ft 438 kts 74°
2026-04-21 20:49 52.55230 4.08328 35365 ft 440 kts 74°
2026-04-21 20:49 52.56811 4.18054 35356 ft 441 kts 74°
2026-04-21 20:50 52.58385 4.27803 35344 ft 441 kts 74°
2026-04-21 20:50 52.59948 4.37538 35347 ft 440 kts 75°
2026-04-21 20:51 52.61499 4.47255 35342 ft 439 kts 75°
2026-04-21 20:51 52.63038 4.56958 35344 ft 438 kts 75°
2026-04-21 20:52 52.64565 4.66638 35346 ft 437 kts 75°
2026-04-21 20:52 52.66083 4.76318 35349 ft 436 kts 75°
2026-04-21 20:53 52.67591 4.85990 35355 ft 435 kts 75°
2026-04-21 20:53 52.69088 4.95653 35358 ft 435 kts 75°
2026-04-21 20:54 52.70576 5.05312 35362 ft 434 kts 76°
2026-04-21 20:54 52.72044 5.14890 35350 ft 433 kts 76°
2026-04-21 20:55 52.73667 5.24452 35343 ft 433 kts 68°
2026-04-21 20:55 52.76663 5.33021 35350 ft 433 kts 52°
2026-04-21 20:56 52.80482 5.40720 35352 ft 433 kts 52°
2026-04-21 20:56 52.82352 5.44652 35499 ft 436 kts 53°
2026-04-21 20:56 52.84205 5.48610 35905 ft 433 kts 53°
2026-04-21 20:57 52.86034 5.52543 36384 ft 430 kts 52°
2026-04-21 20:57 52.87864 5.56482 36640 ft 433 kts 52°
2026-04-21 20:57 52.89705 5.60446 36873 ft 435 kts 52°
2026-04-21 20:57 52.91557 5.64432 37116 ft 437 kts 52°
2026-04-21 20:58 52.93416 5.68435 37367 ft 439 kts 52°
2026-04-21 20:58 52.95288 5.72469 37356 ft 444 kts 52°
2026-04-21 20:58 52.99039 5.80573 37357 ft 440 kts 52°
2026-04-21 20:59 53.02731 5.88574 37368 ft 435 kts 52°
2026-04-21 20:59 53.06384 5.96517 37372 ft 436 kts 52°
2026-04-21 21:00 53.10062 6.04535 37365 ft 436 kts 53°
2026-04-21 21:00 53.13764 6.12611 37390 ft 436 kts 52°
2026-04-21 21:01 53.17423 6.20594 37377 ft 436 kts 53°
2026-04-21 21:01 53.21098 6.28644 37371 ft 436 kts 53°
2026-04-21 21:02 53.24763 6.36699 37371 ft 435 kts 53°
2026-04-21 21:02 53.28419 6.44762 37380 ft 435 kts 53°
2026-04-21 21:03 53.32060 6.52814 37380 ft 434 kts 53°
2026-04-21 21:03 53.35847 6.60675 37368 ft 434 kts 44°
2026-04-21 21:04 53.40315 6.67453 37380 ft 434 kts 42°
2026-04-21 21:04 53.44800 6.74210 37392 ft 433 kts 43°
2026-04-21 21:05 53.49243 6.81037 37381 ft 433 kts 43°
2026-04-21 21:05 53.53668 6.87899 37380 ft 433 kts 43°
2026-04-21 21:06 53.58064 6.94797 37379 ft 432 kts 44°
2026-04-21 21:06 53.62361 7.01863 37384 ft 432 kts 45°
2026-04-21 21:07 53.66639 7.08974 37383 ft 432 kts 45°
2026-04-21 21:07 53.70918 7.16078 37379 ft 432 kts 45°
2026-04-21 21:08 53.75198 7.23183 37391 ft 432 kts 45°
2026-04-21 21:08 53.79479 7.30304 37379 ft 432 kts 45°
2026-04-21 21:09 53.83035 7.36237 37400 ft 432 kts 45°
2026-04-21 21:09 53.87306 7.43384 37390 ft 432 kts 45°
2026-04-21 21:10 53.91569 7.50537 37396 ft 431 kts 45°
2026-04-21 21:10 53.95830 7.57712 37396 ft 431 kts 45°
2026-04-21 21:11 54.00075 7.64880 37391 ft 430 kts 45°
2026-04-21 21:11 54.04314 7.72058 37395 ft 430 kts 45°
2026-04-21 21:12 54.08518 7.79201 37399 ft 429 kts 45°
2026-04-21 21:12 54.12739 7.86394 37399 ft 429 kts 45°
2026-04-21 21:13 54.16950 7.93609 37397 ft 429 kts 46°
2026-04-21 21:13 54.21091 8.00953 37405 ft 429 kts 46°
2026-04-21 21:14 54.25208 8.08342 37392 ft 429 kts 46°
2026-04-21 21:14 54.29328 8.15740 37395 ft 429 kts 46°
2026-04-21 21:15 54.33447 8.23143 37391 ft 429 kts 46°
2026-04-21 21:15 54.37565 8.30560 37391 ft 429 kts 46°
2026-04-21 21:16 54.41680 8.37995 37384 ft 430 kts 46°
2026-04-21 21:16 54.45790 8.45444 37383 ft 430 kts 47°
2026-04-21 21:17 54.49901 8.52918 37387 ft 430 kts 47°
2026-04-21 21:17 54.54004 8.60403 37385 ft 430 kts 47°
2026-04-21 21:18 54.58104 8.67904 37390 ft 430 kts 47°
2026-04-21 21:18 54.62175 8.75376 37381 ft 430 kts 47°
2026-04-21 21:19 54.66263 8.82903 37385 ft 429 kts 47°
2026-04-21 21:19 54.70343 8.90439 37373 ft 429 kts 47°
2026-04-21 21:20 54.74406 8.97969 37374 ft 428 kts 47°
2026-04-21 21:20 54.78462 9.05508 37380 ft 427 kts 47°
2026-04-21 21:21 54.82507 9.13050 37381 ft 427 kts 47°
2026-04-21 21:21 54.86544 9.20612 37370 ft 427 kts 47°
2026-04-21 21:22 54.90481 9.28323 37394 ft 427 kts 49°
2026-04-21 21:22 54.94384 9.36091 37379 ft 426 kts 49°
2026-04-21 21:23 54.98264 9.43798 37393 ft 426 kts 49°
2026-04-21 21:23 55.02172 9.51565 37341 ft 427 kts 49°
2026-04-21 21:24 55.04134 9.55470 36850 ft 427 kts 49°
2026-04-21 21:24 55.06082 9.59355 36295 ft 422 kts 49°
2026-04-21 21:24 55.08004 9.63195 35671 ft 419 kts 49°
2026-04-21 21:24 55.09762 9.67229 35051 ft 417 kts 57°
2026-04-21 21:25 55.11154 9.71639 34634 ft 409 kts 64°
2026-04-21 21:25 55.12157 9.76216 34206 ft 401 kts 71°
2026-04-21 21:25 55.12978 9.80825 33790 ft 394 kts 72°
2026-04-21 21:25 55.13765 9.85369 33366 ft 387 kts 72°
2026-04-21 21:26 55.14537 9.89830 32946 ft 381 kts 72°
2026-04-21 21:26 55.15301 9.94215 32562 ft 373 kts 71°
2026-04-21 21:26 55.16056 9.98523 32133 ft 368 kts 71°
2026-04-21 21:26 55.16812 10.02814 31736 ft 374 kts 71°
2026-04-21 21:27 55.17593 10.07236 31312 ft 384 kts 71°
2026-04-21 21:27 55.18378 10.11684 30874 ft 379 kts 71°
2026-04-21 21:27 55.19146 10.16054 30469 ft 372 kts 71°
2026-04-21 21:27 55.19898 10.20339 30018 ft 365 kts 71°
2026-04-21 21:28 55.20633 10.24538 29596 ft 357 kts 71°
2026-04-21 21:28 55.21353 10.28662 29197 ft 349 kts 71°
2026-04-21 21:28 55.22748 10.36667 28402 ft 338 kts 72°
2026-04-21 21:29 55.23427 10.40578 28023 ft 335 kts 72°
2026-04-21 21:29 55.24115 10.44543 27635 ft 347 kts 72°
2026-04-21 21:29 55.24830 10.48676 27202 ft 360 kts 72°
2026-04-21 21:29 55.25550 10.52852 26779 ft 355 kts 72°
2026-04-21 21:30 55.26256 10.56952 26366 ft 348 kts 72°
2026-04-21 21:30 55.26936 10.60916 25962 ft 341 kts 72°
2026-04-21 21:30 55.27614 10.64873 25573 ft 336 kts 72°
2026-04-21 21:30 55.28279 10.68754 25318 ft 329 kts 72°
2026-04-21 21:31 55.28946 10.72645 25019 ft 340 kts 72°
2026-04-21 21:31 55.29636 10.76674 24637 ft 348 kts 72°
2026-04-21 21:31 55.30326 10.80713 24225 ft 343 kts 73°
2026-04-21 21:31 55.31003 10.84687 23774 ft 337 kts 72°
2026-04-21 21:32 55.31669 10.88605 23346 ft 331 kts 72°
2026-04-21 21:32 55.32320 10.92442 22947 ft 325 kts 72°
2026-04-21 21:32 55.32958 10.96218 22558 ft 320 kts 72°
2026-04-21 21:32 55.33586 10.99961 22129 ft 319 kts 73°
2026-04-21 21:33 55.34209 11.03703 21713 ft 319 kts 73°
2026-04-21 21:33 55.34838 11.07486 21329 ft 329 kts 73°
2026-04-21 21:33 55.35486 11.11394 20947 ft 337 kts 73°
2026-04-21 21:33 55.36136 11.15323 20531 ft 332 kts 72°
2026-04-21 21:34 55.36774 11.19189 20134 ft 326 kts 72°
2026-04-21 21:34 55.37399 11.22989 19744 ft 321 kts 72°
2026-04-21 21:34 55.38015 11.26735 19372 ft 316 kts 72°
2026-04-21 21:34 55.38621 11.30424 18999 ft 312 kts 73°
2026-04-21 21:35 55.39217 11.34066 18626 ft 309 kts 73°
2026-04-21 21:35 55.39802 11.37645 18223 ft 309 kts 73°
2026-04-21 21:35 55.40394 11.41270 17833 ft 308 kts 73°
2026-04-21 21:35 55.40992 11.44941 17468 ft 317 kts 73°
2026-04-21 21:36 55.41605 11.48712 17068 ft 322 kts 73°
2026-04-21 21:36 55.42215 11.52474 16813 ft 314 kts 73°
2026-04-21 21:36 55.42799 11.56090 16673 ft 301 kts 73°
2026-04-21 21:36 55.43361 11.59576 16548 ft 290 kts 73°
2026-04-21 21:37 55.44062 11.62809 16395 ft 279 kts 59°
2026-04-21 21:37 55.45303 11.65406 16092 ft 277 kts 44°
2026-04-21 21:37 55.46730 11.67660 15791 ft 274 kts 43°
2026-04-21 21:37 55.48160 11.69854 15498 ft 272 kts 43°
2026-04-21 21:38 55.49588 11.72048 15209 ft 274 kts 43°
2026-04-21 21:38 55.51031 11.74278 14919 ft 278 kts 43°
2026-04-21 21:38 55.52503 11.76566 14627 ft 285 kts 43°
2026-04-21 21:38 55.53994 11.78895 14309 ft 285 kts 43°
2026-04-21 21:39 55.55466 11.81198 13966 ft 281 kts 43°
2026-04-21 21:39 55.56922 11.83484 13618 ft 278 kts 43°
2026-04-21 21:39 55.58370 11.85759 13192 ft 278 kts 43°
2026-04-21 21:39 55.59807 11.88023 12856 ft 275 kts 43°
2026-04-21 21:40 55.61231 11.90267 12538 ft 272 kts 43°
2026-04-21 21:40 55.62637 11.92487 12234 ft 269 kts 43°
2026-04-21 21:40 55.64025 11.94680 11926 ft 266 kts 43°
2026-04-21 21:40 55.65397 11.96852 11629 ft 264 kts 43°
2026-04-21 21:41 55.66758 11.99006 11286 ft 262 kts 42°
2026-04-21 21:41 55.68142 12.01199 10768 ft 269 kts 42°
2026-04-21 21:41 55.69535 12.03410 10403 ft 268 kts 42°
2026-04-21 21:41 55.70914 12.05598 10196 ft 262 kts 42°
2026-04-21 21:42 55.72242 12.07721 10044 ft 253 kts 45°
2026-04-21 21:42 55.73172 12.10291 9792 ft 249 kts 72°
2026-04-21 21:42 55.73430 12.13297 9519 ft 248 kts 89°
2026-04-21 21:42 55.73283 12.16327 9274 ft 246 kts 95°
2026-04-21 21:43 55.73074 12.19289 9001 ft 244 kts 95°
2026-04-21 21:43 55.72869 12.22290 8740 ft 247 kts 94°
2026-04-21 21:43 55.72669 12.25358 8485 ft 254 kts 94°
2026-04-21 21:43 55.72469 12.28513 8213 ft 260 kts 94°
2026-04-21 21:44 55.72268 12.31683 7928 ft 257 kts 94°
2026-04-21 21:44 55.72071 12.34814 7653 ft 254 kts 94°
2026-04-21 21:44 55.71876 12.37918 7349 ft 252 kts 94°
2026-04-21 21:44 55.71682 12.41006 6933 ft 253 kts 94°
2026-04-21 21:45 55.71486 12.44103 6608 ft 253 kts 94°
2026-04-21 21:45 55.71289 12.47193 6304 ft 251 kts 94°
2026-04-21 21:45 55.71139 12.50249 6022 ft 247 kts 85°
2026-04-21 21:45 55.71603 12.53107 5764 ft 239 kts 62°
2026-04-21 21:46 55.72353 12.55710 5511 ft 236 kts 61°
2026-04-21 21:46 55.73101 12.58290 5250 ft 234 kts 61°
2026-04-21 21:46 55.73837 12.60850 4989 ft 232 kts 61°
2026-04-21 21:46 55.74567 12.63394 4712 ft 230 kts 60°
2026-04-21 21:47 55.75393 12.65797 4442 ft 227 kts 51°
2026-04-21 21:47 55.76356 12.67993 4271 ft 222 kts 49°
2026-04-21 21:47 55.77301 12.70127 4159 ft 221 kts 50°
2026-04-21 21:47 55.78255 12.72303 4064 ft 226 kts 50°
2026-04-21 21:48 55.79037 12.74690 3931 ft 225 kts 73°
2026-04-21 21:48 55.78971 12.77440 3744 ft 228 kts 105°
2026-04-21 21:48 55.78213 12.79864 3561 ft 223 kts 124°
2026-04-21 21:48 55.77221 12.81924 3310 ft 216 kts 128°
2026-04-21 21:49 55.76176 12.83795 3072 ft 213 kts 142°
2026-04-21 21:49 55.74792 12.84538 2874 ft 208 kts 183°
2026-04-21 21:49 55.73504 12.83665 2688 ft 194 kts 221°
2026-04-21 21:49 55.72491 12.82154 2497 ft 188 kts 224°
2026-04-21 21:50 55.71509 12.80651 2351 ft 184 kts 225°
2026-04-21 21:50 55.70536 12.79149 2159 ft 187 kts 225°
2026-04-21 21:50 55.69560 12.77638 1908 ft 182 kts 225°
2026-04-21 21:50 55.68651 12.76231 1661 ft 171 kts 226°
2026-04-21 21:51 55.67784 12.74888 1461 ft 161 kts 226°
2026-04-21 21:51 55.66954 12.73599 1222 ft 156 kts 226°
2026-04-21 21:51 55.66148 12.72346 1027 ft 152 kts 227°
2026-04-21 21:51 55.65361 12.71125 835 ft 149 kts 225°
2026-04-21 21:52 55.64574 12.69924 623 ft 147 kts 223°
2026-04-21 21:52 55.63812 12.68739 372 ft 145 kts 223°
2026-04-21 21:52 55.63062 12.67582 192 ft 142 kts 224°
2026-04-21 21:52 55.62328 12.66429 28 ft 141 kts 222°
2026-04-21 21:53 55.61673 12.65410 16 ft 104 kts 220°
2026-04-21 21:53 55.61242 12.64747 18 ft 60 kts 221°
2026-04-21 21:53 55.60970 12.64326 16 ft 49 kts 220°
2026-04-21 21:53 55.60729 12.63952 18 ft 30 kts 220°
2026-04-21 21:54 55.60700 12.63761 17 ft 17 kts 304°
2026-04-21 21:54 55.60772 12.63613 16 ft 9 kts 311°
2026-04-21 21:54 55.60821 12.63579 16 ft 8 kts 13°
2026-04-21 21:54 55.60868 12.63637 17 ft 9 kts 38°
2026-04-21 21:55 55.60920 12.63698 16 ft 9 kts 32°
2026-04-21 21:55 55.60978 12.63765 18 ft 11 kts 32°
2026-04-21 21:55 55.61046 12.63844 17 ft 12 kts 33°
2026-04-21 21:55 55.61120 12.63929 16 ft 14 kts 32°
2026-04-21 21:56 55.61208 12.64030 16 ft 16 kts 35°
2026-04-21 21:56 55.61308 12.64145 18 ft 18 kts 32°
2026-04-21 21:56 55.61412 12.64264 16 ft 17 kts 33°
2026-04-21 21:56 55.61512 12.64380 16 ft 17 kts 34°
2026-04-21 21:57 55.61609 12.64488 17 ft 16 kts 32°
2026-04-21 21:57 55.61700 12.64597 16 ft 16 kts 34°
2026-04-21 21:57 55.61802 12.64713 18 ft 19 kts 33°
2026-04-21 21:57 55.61914 12.64842 16 ft 20 kts 33°
2026-04-21 21:58 55.61994 12.64936 16 ft 10 kts 36°
2026-04-21 21:58 55.61990 12.65060 17 ft 13 kts 121°
2026-04-21 21:58 55.61933 12.65213 17 ft 17 kts 124°
2026-04-21 21:58 55.61860 12.65412 15 ft 22 kts 123°
2026-04-21 21:59 55.61802 12.65568 18 ft 24 kts 123°
2026-04-21 21:59 55.61709 12.65822 19 ft 24 kts 123°
2026-04-21 21:59 55.61639 12.66076 18 ft 23 kts 99°
2026-04-21 21:59 55.61682 12.66323 16 ft 19 kts 46°
2026-04-21 22:00 55.61765 12.66401 16 ft 6 kts 12°
2026-04-21 22:00 55.61784 12.66407 16 ft 1 kts 10°
2026-04-21 22:00 55.61792 12.66410 16 ft 2 kts 10°
2026-04-21 22:00 55.61807 12.66414 16 ft 3 kts 10°
2026-04-21 22:01 55.61830 12.66426 16 ft 4 kts 26°
2026-04-21 22:01 55.61842 12.66481 16 ft 6 kts 77°
2026-04-21 22:01 55.61871 12.66509 16 ft 5 kts 354°
2026-04-21 22:01 55.61887 12.66506 16 ft 0 kts 356°
2026-04-21 22:02 55.61894 12.66502 16 ft 2 kts 343°
2026-04-21 22:02 55.61901 12.66498 16 ft 0 kts 346°